When you browse on this site, cookies collect data to enhance your experience and personalize the content and advertising you see.
Visit our Privacy Policy to learn more. By continuing to use the site, you agree to this use of cookies and data.
  • In Romania
  • List of Countries
  • For 7 days
  • Water Temperature
  • Satellite Maps
  • Weather Map
  • Weather Widgets
  • user-avatar
    Login

    Hourly Weather Preston

    Today, 18 December, Tuesday

    Time Temperature Precipitation Wind Pressure Humidity
    00:00 +7°C° 0 mm 8 mps 754 mmHg 90%
    01:00 +7°C° 0 mm 9 mps 754 mmHg 89%
    02:00 +7°C° 0 mm 9 mps 753 mmHg 87%
    03:00 +8°C° 0 mm 9 mps 753 mmHg 86%
    04:00 +8°C° 0 mm 10 mps 752 mmHg 85%
    05:00 +8°C° 0 mm 10 mps 751 mmHg 84%
    06:00 +8°C° 0 mm 10 mps 750 mmHg 83%
    07:00 +8°C° 0.2 mm 11 mps 749 mmHg 82%
    08:00 +8°C° 0.2 mm 12 mps 749 mmHg 81%
    09:00 +8°C° 0.2 mm 12 mps 748 mmHg 79%
    10:00 +8°C° 0.6 mm 12 mps 748 mmHg 80%
    11:00 +8°C° 0.6 mm 12 mps 747 mmHg 80%
    12:00 +8°C° 0.6 mm 12 mps 747 mmHg 80%
    13:00 +7°C° 1.2 mm 11 mps 746 mmHg 82%
    14:00 +7°C° 1.2 mm 10 mps 746 mmHg 84%
    15:00 +7°C° 1.2 mm 9 mps 746 mmHg 85%
    16:00 +7°C° 1.3 mm 8 mps 746 mmHg 87%
    17:00 +8°C° 1.3 mm 7 mps 745 mmHg 88%
    18:00 +7°C° 1.3 mm 5 mps 745 mmHg 89%
    19:00 +7°C° 0.4 mm 5 mps 746 mmHg 89%
    20:00 +7°C° 0.4 mm 5 mps 746 mmHg 88%
    21:00 +7°C° 0.4 mm 5 mps 746 mmHg 87%
    22:00 +6°C° 0.1 mm 5 mps 746 mmHg 88%
    23:00 +6°C° 0.1 mm 5 mps 747 mmHg 89%

    Tomorrow, 19 December, Wednesday

    Time Temperature Precipitation Wind Pressure Humidity
    00:00 +6°C° 0.1 mm 5 mps 747 mmHg 89%
    01:00 +6°C° 0.2 mm 5 mps 747 mmHg 90%
    02:00 +5°C° 0.2 mm 5 mps 747 mmHg 90%
    03:00 +5°C° 0.2 mm 5 mps 747 mmHg 91%
    04:00 +5°C° 0.2 mm 4 mps 748 mmHg 91%
    05:00 +5°C° 0.2 mm 4 mps 748 mmHg 92%
    06:00 +5°C° 0.2 mm 4 mps 748 mmHg 92%
    07:00 +5°C° 0.1 mm 4 mps 748 mmHg 92%
    08:00 +5°C° 0.1 mm 4 mps 748 mmHg 92%
    09:00 +5°C° 0.1 mm 5 mps 749 mmHg 91%
    10:00 +5°C° 0.1 mm 5 mps 748 mmHg 88%
    11:00 +5°C° 0.1 mm 6 mps 748 mmHg 84%
    12:00 +5°C° 0.1 mm 6 mps 748 mmHg 80%
    13:00 +5°C° 0.1 mm 6 mps 748 mmHg 80%
    14:00 +5°C° 0.1 mm 6 mps 747 mmHg 80%
    15:00 +5°C° 0.1 mm 7 mps 747 mmHg 79%
    16:00 +5°C° 0.3 mm 6 mps 747 mmHg 81%
    17:00 +5°C° 0.3 mm 6 mps 747 mmHg 82%
    18:00 +4°C° 0.3 mm 6 mps 746 mmHg 84%
    19:00 +5°C° 0.4 mm 6 mps 746 mmHg 85%
    20:00 +5°C° 0.4 mm 6 mps 746 mmHg 86%
    21:00 +5°C° 0.4 mm 6 mps 746 mmHg 88%
    22:00 +4°C° 0.2 mm 6 mps 746 mmHg 88%
    23:00 +4°C° 0.2 mm 6 mps 746 mmHg 88%

    Day after tomorrow, 20 December, Thursday

    Time Temperature Precipitation Wind Pressure Humidity
    00:00 +5°C° 0.2 mm 5 mps 746 mmHg 88%
    01:00 +4°C° 0.3 mm 6 mps 746 mmHg 88%
    02:00 +4°C° 0.3 mm 6 mps 746 mmHg 88%
    03:00 +4°C° 0.3 mm 6 mps 747 mmHg 88%
    04:00 +5°C° 0.4 mm 6 mps 747 mmHg 87%
    05:00 +5°C° 0.4 mm 7 mps 747 mmHg 87%
    06:00 +5°C° 0.4 mm 7 mps 748 mmHg 86%
    07:00 +5°C° 0.3 mm 7 mps 748 mmHg 85%
    08:00 +5°C° 0.3 mm 7 mps 749 mmHg 84%
    09:00 +5°C° 0.3 mm 7 mps 749 mmHg 83%
    10:00 +6°C° 0.3 mm 8 mps 749 mmHg 81%
    11:00 +6°C° 0.3 mm 8 mps 750 mmHg 78%
    12:00 +6°C° 0.3 mm 8 mps 750 mmHg 75%
    13:00 +6°C° 0.4 mm 8 mps 750 mmHg 76%
    14:00 +6°C° 0.4 mm 8 mps 750 mmHg 76%
    15:00 +6°C° 0.4 mm 8 mps 751 mmHg 77%
    16:00 +6°C° 0.2 mm 7 mps 751 mmHg 79%
    17:00 +5°C° 0.2 mm 6 mps 751 mmHg 81%
    18:00 +5°C° 0.2 mm 6 mps 751 mmHg 83%
    19:00 +6°C° 0.1 mm 5 mps 751 mmHg 84%
    20:00 +5°C° 0.1 mm 4 mps 751 mmHg 86%
    21:00 +5°C° 0.1 mm 4 mps 751 mmHg 88%
    22:00 +5°C° 0.1 mm 4 mps 750 mmHg 89%
    23:00 +5°C° 0.1 mm 4 mps 750 mmHg 90%

    21 December, Friday

    Time Temperature Precipitation Wind Pressure Humidity
    00:00 +5°C° 0.1 mm 4 mps 749 mmHg 91%
    01:00 +5°C° 0.9 mm 5 mps 747 mmHg 91%
    02:00 +4°C° 0.9 mm 6 mps 746 mmHg 92%
    03:00 +4°C° 0.9 mm 6 mps 744 mmHg 92%
    04:00 +5°C° 2 mm 6 mps 743 mmHg 93%
    05:00 +7°C° 2 mm 6 mps 742 mmHg 94%
    06:00 +7°C° 2 mm 6 mps 741 mmHg 94%
    07:00 +7°C° 0.3 mm 8 mps 741 mmHg 89%
    08:00 +7°C° 0.3 mm 10 mps 742 mmHg 85%
    09:00 +8°C° 0.3 mm 12 mps 742 mmHg 80%
    10:00 +8°C° 0.1 mm 12 mps 743 mmHg 78%
    11:00 +7°C° 0.1 mm 13 mps 744 mmHg 75%
    12:00 +7°C° 0.1 mm 13 mps 745 mmHg 73%
    13:00 +7°C° 0.1 mm 12 mps 746 mmHg 72%
    14:00 +7°C° 0.1 mm 12 mps 746 mmHg 71%
    15:00 +7°C° 0.1 mm 11 mps 747 mmHg 70%
    16:00 +7°C° 0.1 mm 11 mps 747 mmHg 73%
    17:00 +7°C° 0.1 mm 10 mps 748 mmHg 75%
    18:00 +7°C° 0.1 mm 9 mps 748 mmHg 77%
    19:00 +6°C° 0.3 mm 8 mps 748 mmHg 80%
    20:00 +6°C° 0.3 mm 8 mps 748 mmHg 83%
    21:00 +6°C° 0.3 mm 7 mps 747 mmHg 86%
    22:00 +6°C° 0.7 mm 7 mps 747 mmHg 88%
    23:00 +7°C° 0.7 mm 6 mps 747 mmHg 89%

    22 December, Saturday

    Time Temperature Precipitation Wind Pressure Humidity
    00:00 +7°C° 0.7 mm 6 mps 747 mmHg 91%
    01:00 +7°C° 0.3 mm 6 mps 748 mmHg 89%
    02:00 +6°C° 0.3 mm 7 mps 748 mmHg 88%
    03:00 +6°C° 0.3 mm 7 mps 748 mmHg 86%
    04:00 +6°C° 0.2 mm 7 mps 749 mmHg 85%
    05:00 +5°C° 0.2 mm 7 mps 749 mmHg 84%
    06:00 +5°C° 0.2 mm 7 mps 750 mmHg 83%
    07:00 +5°C° 0.2 mm 8 mps 751 mmHg 82%
    08:00 +5°C° 0.2 mm 8 mps 751 mmHg 81%
    09:00 +5°C° 0.2 mm 8 mps 752 mmHg 81%
    10:00 +5°C° 0.1 mm 8 mps 753 mmHg 77%
    11:00 +6°C° 0.1 mm 9 mps 753 mmHg 74%
    12:00 +6°C° 0.1 mm 9 mps 754 mmHg 71%
    13:00 +6°C° 0.1 mm 9 mps 754 mmHg 72%
    14:00 +6°C° 0.1 mm 9 mps 755 mmHg 72%
    15:00 +6°C° 0.1 mm 9 mps 755 mmHg 73%
    16:00 +6°C° 0.1 mm 8 mps 756 mmHg 75%
    17:00 +5°C° 0.1 mm 8 mps 756 mmHg 77%
    18:00 +5°C° 0.1 mm 7 mps 757 mmHg 79%
    19:00 +5°C° 0.1 mm 7 mps 757 mmHg 80%
    20:00 +5°C° 0.1 mm 7 mps 757 mmHg 81%
    21:00 +5°C° 0.1 mm 7 mps 758 mmHg 82%
    22:00 +5°C° 0 mm 7 mps 758 mmHg 83%
    23:00 +5°C° 0 mm 6 mps 758 mmHg 84%

    23 December, Sunday

    Time Temperature Precipitation Wind Pressure Humidity
    00:00 +5°C° 0 mm 6 mps 758 mmHg 86%
    01:00 +5°C° 0 mm 6 mps 759 mmHg 87%
    02:00 +5°C° 0 mm 6 mps 759 mmHg 89%
    03:00 +6°C° 0 mm 5 mps 759 mmHg 91%
    04:00 +6°C° 0 mm 5 mps 759 mmHg 92%
    05:00 +6°C° 0 mm 4 mps 759 mmHg 92%
    06:00 +6°C° 0 mm 4 mps 759 mmHg 93%
    07:00 +6°C° 0 mm 4 mps 759 mmHg 94%
    08:00 +7°C° 0 mm 3 mps 759 mmHg 94%
    09:00 +7°C° 0 mm 3 mps 759 mmHg 94%
    10:00 +7°C° 0 mm 3 mps 759 mmHg 93%
    11:00 +8°C° 0 mm 3 mps 759 mmHg 92%
    12:00 +7°C° 0 mm 4 mps 759 mmHg 91%
    13:00 +7°C° 0.3 mm 4 mps 758 mmHg 92%
    14:00 +7°C° 0.3 mm 4 mps 758 mmHg 93%
    15:00 +7°C° 0.3 mm 4 mps 757 mmHg 94%
    16:00 +7°C° 1.1 mm 4 mps 757 mmHg 94%
    17:00 +7°C° 1.1 mm 4 mps 756 mmHg 94%
    18:00 +7°C° 1.1 mm 4 mps 756 mmHg 95%
    19:00 +7°C° 0.8 mm 4 mps 756 mmHg 95%
    20:00 +8°C° 0.8 mm 3 mps 756 mmHg 96%
    21:00 +8°C° 0.8 mm 3 mps 756 mmHg 96%
    22:00 +9°C° 0.2 mm 3 mps 756 mmHg 96%
    23:00 +9°C° 0.2 mm 2 mps 756 mmHg 96%
    Show more